Year,Month,Day,Hour,Minute,Value (Times are PST for windgust in km/hr)
2021,09,29,00,00,19.30
2021,09,29,00,01,22.50
2021,09,29,00,02,27.40
2021,09,29,00,03,27.40
2021,09,29,00,04,32.20
2021,09,29,00,05,25.70
2021,09,29,00,06,25.70
2021,09,29,00,07,25.70
2021,09,29,00,08,27.40
2021,09,29,00,09,24.20
2021,09,29,00,10,30.60
2021,09,29,00,11,22.50
2021,09,29,00,12,25.70
2021,09,29,00,13,20.90
2021,09,29,00,14,27.40
2021,09,29,00,15,22.50
2021,09,29,00,16,22.50
2021,09,29,00,17,19.30
2021,09,29,00,18,16.10
2021,09,29,00,19,25.70
2021,09,29,00,20,27.40
2021,09,29,00,21,25.70
2021,09,29,00,22,27.40
2021,09,29,00,23,27.40
2021,09,29,00,24,27.40
2021,09,29,00,25,25.70
2021,09,29,00,26,25.70
2021,09,29,00,27,25.70
2021,09,29,00,28,25.70
2021,09,29,00,29,25.70
2021,09,29,00,30,24.20
2021,09,29,00,31,22.50
2021,09,29,00,32,24.20
2021,09,29,00,33,24.20
2021,09,29,00,34,24.20
2021,09,29,00,35,27.40
2021,09,29,00,36,24.20
2021,09,29,00,37,17.70
2021,09,29,00,38,24.20
2021,09,29,00,39,24.20
2021,09,29,00,40,16.10
2021,09,29,00,41,17.70
2021,09,29,00,42,22.50
2021,09,29,00,43,20.90
2021,09,29,00,44,22.50
2021,09,29,00,45,24.20
2021,09,29,00,46,20.90
2021,09,29,00,47,25.70
2021,09,29,00,48,24.20
2021,09,29,00,49,25.70
2021,09,29,00,50,24.20
2021,09,29,00,51,25.70
2021,09,29,00,52,24.20
2021,09,29,00,53,29.00
2021,09,29,00,54,22.50
2021,09,29,00,55,30.60
2021,09,29,00,56,25.70
2021,09,29,00,57,29.00
2021,09,29,00,58,32.20
2021,09,29,00,59,27.40
2021,09,29,01,00,25.70
2021,09,29,01,01,29.00
2021,09,29,01,02,20.90
2021,09,29,01,03,22.50
2021,09,29,01,04,17.70
2021,09,29,01,05,17.70
2021,09,29,01,06,20.90
2021,09,29,01,07,12.90
2021,09,29,01,08,16.10
2021,09,29,01,09,17.70
2021,09,29,01,10,17.70
2021,09,29,01,11,17.70
2021,09,29,01,12,16.10
2021,09,29,01,13,19.30
2021,09,29,01,14,20.90
2021,09,29,01,15,17.70
2021,09,29,01,16,19.30
2021,09,29,01,17,22.50
2021,09,29,01,18,20.90
2021,09,29,01,19,24.20
2021,09,29,01,20,19.30
2021,09,29,01,21,17.70
2021,09,29,01,22,22.50
2021,09,29,01,23,16.10
2021,09,29,01,24,17.70
2021,09,29,01,25,20.90
2021,09,29,01,26,16.10
2021,09,29,01,27,9.60
2021,09,29,01,28,12.90
2021,09,29,01,29,12.90
2021,09,29,01,30,4.80
2021,09,29,01,31,8.10
2021,09,29,01,32,12.90
2021,09,29,01,33,12.90
2021,09,29,01,34,12.90
2021,09,29,01,35,14.50
2021,09,29,01,36,16.10
2021,09,29,01,37,17.70
2021,09,29,01,38,17.70
2021,09,29,01,39,14.50
2021,09,29,01,40,14.50
2021,09,29,01,41,17.70
2021,09,29,01,42,24.20
2021,09,29,01,43,17.70
2021,09,29,01,44,14.50
2021,09,29,01,45,9.60
2021,09,29,01,46,14.50
2021,09,29,01,47,12.90
2021,09,29,01,48,14.50
2021,09,29,01,49,12.90
2021,09,29,01,50,11.30
2021,09,29,01,51,12.90
2021,09,29,01,52,9.60
2021,09,29,01,53,12.90
2021,09,29,01,54,11.30
2021,09,29,01,55,6.40
2021,09,29,01,56,9.60
2021,09,29,01,57,12.90
2021,09,29,01,58,16.10
2021,09,29,01,59,11.30
2021,09,29,02,00,11.30
2021,09,29,02,01,9.60
2021,09,29,02,02,14.50
2021,09,29,02,03,14.50
2021,09,29,02,04,17.70
2021,09,29,02,05,19.30
2021,09,29,02,06,14.50
2021,09,29,02,07,12.90
2021,09,29,02,08,14.50
2021,09,29,02,09,16.10
2021,09,29,02,10,9.60
2021,09,29,02,11,11.30
2021,09,29,02,12,16.10
2021,09,29,02,13,17.70
2021,09,29,02,14,12.90
2021,09,29,02,15,16.10
2021,09,29,02,16,8.10
2021,09,29,02,17,12.90
2021,09,29,02,18,19.30
2021,09,29,02,19,17.70
2021,09,29,02,20,12.90
2021,09,29,02,21,11.30
2021,09,29,02,22,11.30
2021,09,29,02,23,8.10
2021,09,29,02,24,6.40
2021,09,29,02,25,8.10
2021,09,29,02,26,6.40
2021,09,29,02,27,6.40
2021,09,29,02,28,11.30
2021,09,29,02,29,8.10
2021,09,29,02,30,9.60
2021,09,29,02,31,6.40
2021,09,29,02,32,4.80
2021,09,29,02,33,8.10
2021,09,29,02,34,11.30
2021,09,29,02,35,11.30
2021,09,29,02,36,12.90
2021,09,29,02,37,12.90
2021,09,29,02,38,8.10
2021,09,29,02,39,6.40
2021,09,29,02,40,12.90
2021,09,29,02,41,14.50
2021,09,29,02,42,8.10
2021,09,29,02,43,9.60
2021,09,29,02,44,9.60
2021,09,29,02,45,4.80
2021,09,29,02,46,4.80
2021,09,29,02,47,6.40
2021,09,29,02,48,4.80
2021,09,29,02,49,3.20
2021,09,29,02,50,6.40
2021,09,29,02,51,8.10
2021,09,29,02,52,8.10
2021,09,29,02,53,8.10
2021,09,29,02,54,8.10
2021,09,29,02,55,8.10
2021,09,29,02,56,8.10
2021,09,29,02,57,9.60
2021,09,29,02,58,8.10
2021,09,29,02,59,9.60
2021,09,29,03,00,9.60
2021,09,29,03,01,8.10
2021,09,29,03,02,9.60
2021,09,29,03,03,11.30
2021,09,29,03,04,11.30
2021,09,29,03,05,6.40
2021,09,29,03,06,8.10
2021,09,29,03,07,8.10
2021,09,29,03,08,8.10
2021,09,29,03,09,8.10
2021,09,29,03,10,8.10
2021,09,29,03,11,6.40
2021,09,29,03,12,4.80
2021,09,29,03,13,3.20
2021,09,29,03,14,6.40
2021,09,29,03,15,1.60
2021,09,29,03,16,6.40
2021,09,29,03,17,3.20
2021,09,29,03,18,3.20
2021,09,29,03,19,6.40
2021,09,29,03,20,8.10
2021,09,29,03,21,6.40
2021,09,29,03,22,6.40
2021,09,29,03,23,8.10
2021,09,29,03,24,8.10
2021,09,29,03,25,8.10
2021,09,29,03,26,8.10
2021,09,29,03,27,6.40
2021,09,29,03,28,6.40
2021,09,29,03,29,6.40
2021,09,29,03,30,4.80
2021,09,29,03,31,6.40
2021,09,29,03,32,6.40
2021,09,29,03,33,4.80
2021,09,29,03,34,6.40
2021,09,29,03,35,8.10
2021,09,29,03,36,8.10
2021,09,29,03,37,11.30
2021,09,29,03,38,11.30
2021,09,29,03,39,11.30
2021,09,29,03,40,9.60
2021,09,29,03,41,11.30
2021,09,29,03,42,12.90
2021,09,29,03,43,11.30
2021,09,29,03,44,6.40
2021,09,29,03,45,6.40
2021,09,29,03,46,9.60
2021,09,29,03,47,11.30
2021,09,29,03,48,11.30
2021,09,29,03,49,12.90
2021,09,29,03,50,14.50
2021,09,29,03,51,12.90
2021,09,29,03,52,11.30
2021,09,29,03,53,12.90
2021,09,29,03,54,12.90
2021,09,29,03,55,12.90
2021,09,29,03,56,11.30
2021,09,29,03,57,14.50
2021,09,29,03,58,14.50
2021,09,29,03,59,12.90
2021,09,29,04,00,12.90
2021,09,29,04,01,12.90
2021,09,29,04,02,12.90
2021,09,29,04,03,11.30
2021,09,29,04,04,11.30
2021,09,29,04,05,11.30
2021,09,29,04,06,11.30
2021,09,29,04,07,11.30
2021,09,29,04,08,8.10
2021,09,29,04,09,6.40
2021,09,29,04,10,6.40
2021,09,29,04,11,6.40
2021,09,29,04,12,6.40
2021,09,29,04,13,8.10
2021,09,29,04,14,6.40
2021,09,29,04,15,6.40
2021,09,29,04,16,6.40
2021,09,29,04,17,6.40
2021,09,29,04,18,6.40
2021,09,29,04,19,6.40
2021,09,29,04,20,6.40
2021,09,29,04,21,6.40
2021,09,29,04,22,6.40
2021,09,29,04,23,4.80
2021,09,29,04,24,4.80
2021,09,29,04,25,4.80
2021,09,29,04,26,3.20
2021,09,29,04,27,3.20
2021,09,29,04,28,4.80
2021,09,29,04,29,3.20
2021,09,29,04,30,3.20
2021,09,29,04,31,3.20
2021,09,29,04,32,3.20
2021,09,29,04,33,1.60
2021,09,29,04,34,1.60
2021,09,29,04,35,1.60
2021,09,29,04,36,1.60
2021,09,29,04,37,1.60
2021,09,29,04,38,1.60
2021,09,29,04,39,1.60
2021,09,29,04,43,1.60
2021,09,29,04,46,1.60
2021,09,29,04,47,1.60
2021,09,29,04,48,1.60
2021,09,29,04,50,1.60
2021,09,29,04,53,3.20
2021,09,29,04,54,3.20
2021,09,29,04,55,3.20
2021,09,29,04,56,1.60
2021,09,29,04,59,1.60
2021,09,29,05,00,1.60
2021,09,29,05,01,1.60
2021,09,29,05,02,1.60
2021,09,29,05,03,1.60
2021,09,29,05,04,1.60
2021,09,29,05,06,1.60
2021,09,29,05,07,1.60
2021,09,29,05,08,1.60
2021,09,29,05,09,1.60
2021,09,29,05,10,1.60
2021,09,29,05,12,1.60
2021,09,29,05,13,1.60
2021,09,29,05,14,1.60
2021,09,29,05,15,3.20
2021,09,29,05,16,3.20
2021,09,29,05,17,1.60
2021,09,29,05,20,3.20
2021,09,29,05,21,3.20
2021,09,29,05,22,3.20
2021,09,29,05,23,4.80
2021,09,29,05,24,6.40
2021,09,29,05,25,6.40
2021,09,29,05,26,4.80
2021,09,29,05,27,4.80
2021,09,29,05,28,6.40
2021,09,29,05,29,4.80
2021,09,29,05,30,6.40
2021,09,29,05,31,6.40
2021,09,29,05,32,4.80
2021,09,29,05,33,6.40
2021,09,29,05,34,6.40
2021,09,29,05,35,6.40
2021,09,29,05,36,6.40
2021,09,29,05,37,6.40
2021,09,29,05,38,6.40
2021,09,29,05,39,6.40
2021,09,29,05,40,6.40
2021,09,29,05,41,6.40
2021,09,29,05,42,4.80
2021,09,29,05,43,8.10
2021,09,29,05,44,8.10
2021,09,29,05,45,8.10
2021,09,29,05,46,8.10
2021,09,29,05,47,9.60
2021,09,29,05,48,9.60
2021,09,29,05,49,9.60
2021,09,29,05,50,9.60
2021,09,29,05,51,9.60
2021,09,29,05,52,9.60
2021,09,29,05,53,9.60
2021,09,29,05,54,9.60
2021,09,29,05,55,9.60
2021,09,29,05,56,9.60
2021,09,29,05,57,8.10
2021,09,29,05,58,9.60
2021,09,29,05,59,8.10
2021,09,29,06,00,8.10
2021,09,29,06,01,8.10
2021,09,29,06,02,8.10
2021,09,29,06,03,8.10
2021,09,29,06,04,8.10
2021,09,29,06,05,8.10
2021,09,29,06,06,8.10
2021,09,29,06,07,6.40
2021,09,29,06,08,8.10
2021,09,29,06,09,8.10
2021,09,29,06,10,8.10
2021,09,29,06,11,6.40
2021,09,29,06,12,6.40
2021,09,29,06,13,4.80
2021,09,29,06,14,4.80
2021,09,29,06,15,4.80
2021,09,29,06,16,4.80
2021,09,29,06,17,3.20
2021,09,29,06,18,3.20
2021,09,29,06,19,3.20
2021,09,29,06,20,3.20
2021,09,29,06,21,1.60
2021,09,29,06,22,1.60
2021,09,29,06,23,3.20
2021,09,29,06,24,4.80
2021,09,29,06,25,3.20
2021,09,29,06,26,3.20
2021,09,29,06,27,3.20
2021,09,29,06,28,3.20
2021,09,29,06,29,3.20
2021,09,29,06,30,6.40
2021,09,29,06,31,9.60
2021,09,29,06,32,6.40
2021,09,29,06,33,6.40
2021,09,29,06,34,4.80
2021,09,29,06,35,6.40
2021,09,29,06,36,9.60
2021,09,29,06,37,9.60
2021,09,29,06,38,6.40
2021,09,29,06,39,8.10
2021,09,29,06,40,6.40
2021,09,29,06,41,4.80
2021,09,29,06,42,4.80
2021,09,29,06,43,4.80
2021,09,29,06,44,4.80
2021,09,29,06,45,3.20
2021,09,29,06,46,1.60
2021,09,29,06,47,1.60
2021,09,29,06,48,1.60
2021,09,29,06,49,1.60
2021,09,29,06,50,3.20
2021,09,29,06,51,3.20
2021,09,29,06,52,3.20
2021,09,29,06,53,3.20
2021,09,29,06,54,3.20
2021,09,29,06,55,3.20
2021,09,29,06,56,3.20
2021,09,29,06,57,3.20
2021,09,29,06,58,3.20
2021,09,29,06,59,3.20
2021,09,29,07,00,3.20
2021,09,29,07,01,1.60
2021,09,29,07,02,3.20
2021,09,29,07,03,3.20
2021,09,29,07,04,3.20
2021,09,29,07,05,6.40
2021,09,29,07,06,6.40
2021,09,29,07,07,9.60
2021,09,29,07,08,9.60
2021,09,29,07,09,12.90
2021,09,29,07,10,8.10
2021,09,29,07,11,11.30
2021,09,29,07,12,17.70
2021,09,29,07,13,20.90
2021,09,29,07,14,19.30
2021,09,29,07,15,20.90
2021,09,29,07,16,20.90
2021,09,29,07,17,20.90
2021,09,29,07,18,17.70
2021,09,29,07,19,19.30
2021,09,29,07,20,19.30
2021,09,29,07,21,22.50
2021,09,29,07,22,20.90
2021,09,29,07,23,17.70
2021,09,29,07,24,22.50
2021,09,29,07,25,22.50
2021,09,29,07,26,24.20
2021,09,29,07,27,19.30
2021,09,29,07,28,25.70
2021,09,29,07,29,24.20
2021,09,29,07,30,29.00
2021,09,29,07,31,24.20
2021,09,29,07,32,22.50
2021,09,29,07,33,24.20
2021,09,29,07,34,20.90
2021,09,29,07,35,19.30
2021,09,29,07,36,25.70
2021,09,29,07,37,24.20
2021,09,29,07,38,22.50
2021,09,29,07,39,20.90
2021,09,29,07,40,25.70
2021,09,29,07,41,24.20
2021,09,29,07,42,22.50
2021,09,29,07,43,22.50
2021,09,29,07,44,22.50
2021,09,29,07,45,22.50
2021,09,29,07,46,27.40
2021,09,29,07,47,22.50
2021,09,29,07,48,25.70
2021,09,29,07,49,27.40
2021,09,29,07,50,27.40
2021,09,29,07,51,27.40
2021,09,29,07,52,22.50
2021,09,29,07,53,27.40
2021,09,29,07,54,24.20
2021,09,29,07,55,27.40
2021,09,29,07,56,29.00
2021,09,29,07,57,35.40
2021,09,29,07,58,29.00
2021,09,29,07,59,38.60
2021,09,29,08,00,33.80
2021,09,29,08,01,30.60
2021,09,29,08,02,32.20
2021,09,29,08,03,33.80
2021,09,29,08,04,33.80
2021,09,29,08,05,30.60
2021,09,29,08,06,32.20
2021,09,29,08,07,24.20
2021,09,29,08,08,27.40
2021,09,29,08,09,24.20
2021,09,29,08,10,27.40
2021,09,29,08,11,27.40
2021,09,29,08,12,27.40
2021,09,29,08,13,30.60
2021,09,29,08,14,32.20
2021,09,29,08,15,30.60
2021,09,29,08,16,30.60
2021,09,29,08,17,32.20
2021,09,29,08,18,29.00
2021,09,29,08,19,27.40
2021,09,29,08,20,27.40
2021,09,29,08,21,30.60
2021,09,29,08,22,32.20
2021,09,29,08,23,33.80
2021,09,29,08,24,32.20
2021,09,29,08,25,32.20
2021,09,29,08,26,32.20
2021,09,29,08,27,30.60
2021,09,29,08,28,29.00
2021,09,29,08,29,27.40
2021,09,29,08,30,30.60
2021,09,29,08,31,33.80
2021,09,29,08,32,24.20
2021,09,29,08,33,25.70
2021,09,29,08,34,24.20
2021,09,29,08,35,25.70
2021,09,29,08,36,27.40
2021,09,29,08,37,29.00
2021,09,29,08,38,32.20
2021,09,29,08,39,30.60
2021,09,29,08,40,25.70
2021,09,29,08,41,32.20
2021,09,29,08,42,25.70
2021,09,29,08,43,25.70
2021,09,29,08,44,29.00
2021,09,29,08,45,27.40
2021,09,29,08,46,25.70
2021,09,29,08,47,27.40
2021,09,29,08,48,27.40
2021,09,29,08,49,27.40
2021,09,29,08,50,30.60
2021,09,29,08,51,29.00
2021,09,29,08,52,25.70
2021,09,29,08,53,24.20
2021,09,29,08,54,29.00
2021,09,29,08,55,25.70
2021,09,29,08,56,22.50
2021,09,29,08,57,19.30
2021,09,29,08,58,27.40
2021,09,29,08,59,29.00
2021,09,29,09,00,22.50
2021,09,29,09,01,22.50
2021,09,29,09,02,22.50
2021,09,29,09,03,19.30
2021,09,29,09,04,24.20
2021,09,29,09,05,24.20
2021,09,29,09,06,32.20
2021,09,29,09,07,25.70
2021,09,29,09,08,29.00
2021,09,29,09,09,24.20
2021,09,29,09,10,25.70
2021,09,29,09,11,22.50
2021,09,29,09,12,24.20
2021,09,29,09,13,22.50
2021,09,29,09,14,20.90
2021,09,29,09,15,22.50
2021,09,29,09,16,25.70
2021,09,29,09,17,29.00
2021,09,29,09,18,25.70
2021,09,29,09,19,25.70
2021,09,29,09,20,24.20
2021,09,29,09,21,24.20
2021,09,29,09,22,22.50
2021,09,29,09,23,22.50
2021,09,29,09,24,22.50
2021,09,29,09,25,22.50
2021,09,29,09,26,19.30
2021,09,29,09,27,19.30
2021,09,29,09,28,20.90
2021,09,29,09,29,24.20
2021,09,29,09,30,25.70
2021,09,29,09,31,20.90
2021,09,29,09,32,20.90
2021,09,29,09,33,22.50
2021,09,29,09,34,22.50
2021,09,29,09,35,27.40
2021,09,29,09,36,27.40
2021,09,29,09,37,27.40
2021,09,29,09,38,27.40
2021,09,29,09,39,24.20
2021,09,29,09,40,32.20
2021,09,29,09,41,33.80
2021,09,29,09,42,30.60
2021,09,29,09,43,30.60
2021,09,29,09,44,27.40
2021,09,29,09,45,24.20
2021,09,29,09,46,27.40
2021,09,29,09,47,24.20
2021,09,29,09,48,25.70
2021,09,29,09,49,29.00
2021,09,29,09,50,32.20
2021,09,29,09,51,27.40
2021,09,29,09,52,27.40
2021,09,29,09,53,25.70
2021,09,29,09,54,27.40
2021,09,29,09,55,25.70
2021,09,29,09,56,30.60
2021,09,29,09,57,30.60
2021,09,29,09,58,30.60
2021,09,29,09,59,29.00
2021,09,29,10,00,29.00
2021,09,29,10,01,30.60
2021,09,29,10,02,27.40
2021,09,29,10,03,22.50
2021,09,29,10,04,29.00
2021,09,29,10,05,29.00
2021,09,29,10,06,32.20
2021,09,29,10,07,29.00
2021,09,29,10,08,25.70
2021,09,29,10,09,25.70
2021,09,29,10,10,40.20
2021,09,29,10,11,37.00
2021,09,29,10,12,33.80
2021,09,29,10,13,29.00
2021,09,29,10,14,37.00
2021,09,29,10,15,33.80
2021,09,29,10,16,33.80
2021,09,29,10,17,33.80
2021,09,29,10,18,33.80
2021,09,29,10,19,27.40
2021,09,29,10,20,32.20
2021,09,29,10,21,35.40
2021,09,29,10,22,32.20
2021,09,29,10,23,32.20
2021,09,29,10,24,35.40
2021,09,29,10,25,32.20
2021,09,29,10,26,22.50
2021,09,29,10,27,29.00
2021,09,29,10,28,32.20
2021,09,29,10,29,32.20
2021,09,29,10,30,30.60
2021,09,29,10,31,32.20
2021,09,29,10,32,27.40
2021,09,29,10,33,32.20
2021,09,29,10,34,30.60
2021,09,29,10,35,32.20
2021,09,29,10,36,29.00
2021,09,29,10,37,33.80
2021,09,29,10,38,38.60
2021,09,29,10,39,33.80
2021,09,29,10,40,30.60
2021,09,29,10,41,32.20
2021,09,29,10,42,35.40
2021,09,29,10,43,35.40
2021,09,29,10,44,32.20
2021,09,29,10,45,33.80
2021,09,29,10,46,32.20
2021,09,29,10,47,32.20
2021,09,29,10,48,35.40
2021,09,29,10,49,32.20
2021,09,29,10,50,32.20
2021,09,29,10,51,32.20
2021,09,29,10,52,33.80
2021,09,29,10,53,25.70
2021,09,29,10,54,37.00
2021,09,29,10,55,38.60
2021,09,29,10,56,27.40
2021,09,29,10,57,32.20
2021,09,29,10,58,41.80
2021,09,29,10,59,30.60
2021,09,29,11,00,35.40
2021,09,29,11,01,35.40
2021,09,29,11,02,30.60
2021,09,29,11,03,27.40
2021,09,29,11,04,24.20
2021,09,29,11,05,27.40
2021,09,29,11,06,27.40
2021,09,29,11,07,25.70
2021,09,29,11,08,25.70
2021,09,29,11,09,37.00
2021,09,29,11,10,25.70
2021,09,29,11,11,29.00
2021,09,29,11,12,27.40
2021,09,29,11,13,32.20
2021,09,29,11,14,27.40
2021,09,29,11,15,32.20
2021,09,29,11,16,33.80
2021,09,29,11,17,29.00
2021,09,29,11,18,32.20
2021,09,29,12,44,33.80
2021,09,29,12,45,30.60
2021,09,29,12,46,37.00
2021,09,29,12,47,32.20
2021,09,29,12,48,32.20
2021,09,29,12,49,29.00
2021,09,29,12,50,30.60
2021,09,29,12,51,32.20
2021,09,29,12,52,38.60
2021,09,29,12,53,37.00
2021,09,29,12,54,29.00
2021,09,29,12,55,30.60
2021,09,29,12,56,33.80
2021,09,29,12,57,29.00
2021,09,29,12,58,29.00
2021,09,29,12,59,29.00
2021,09,29,13,00,29.00
2021,09,29,13,01,32.20
2021,09,29,13,02,30.60
2021,09,29,13,03,24.20
2021,09,29,13,04,30.60
2021,09,29,13,05,32.20
2021,09,29,13,06,29.00
2021,09,29,13,07,37.00
2021,09,29,13,08,32.20
2021,09,29,13,09,32.20
2021,09,29,13,10,33.80
2021,09,29,13,11,30.60
2021,09,29,13,12,30.60
2021,09,29,13,13,32.20
2021,09,29,13,14,25.70
2021,09,29,13,15,32.20
2021,09,29,13,16,40.20
2021,09,29,13,17,37.00
2021,09,29,13,18,33.80
2021,09,29,13,19,33.80
2021,09,29,13,20,40.20
2021,09,29,13,21,32.20
2021,09,29,13,22,27.40
2021,09,29,13,23,32.20
2021,09,29,13,24,30.60
2021,09,29,13,25,29.00
2021,09,29,13,26,35.40
2021,09,29,13,27,37.00
2021,09,29,13,28,37.00
2021,09,29,13,29,35.40
2021,09,29,13,30,32.20
2021,09,29,13,31,25.70
2021,09,29,13,32,25.70
2021,09,29,13,33,27.40
2021,09,29,13,34,33.80
2021,09,29,13,35,32.20
2021,09,29,13,36,32.20
2021,09,29,13,37,32.20
2021,09,29,13,38,32.20
2021,09,29,13,39,30.60
2021,09,29,13,40,33.80
2021,09,29,13,41,32.20
2021,09,29,13,42,30.60
2021,09,29,13,43,32.20
2021,09,29,13,44,35.40
2021,09,29,13,45,30.60
2021,09,29,13,46,29.00
2021,09,29,13,47,25.70
2021,09,29,13,48,27.40
2021,09,29,13,49,29.00
2021,09,29,13,50,32.20
2021,09,29,13,51,35.40
2021,09,29,13,52,32.20
2021,09,29,13,53,27.40
2021,09,29,13,54,29.00
2021,09,29,13,55,30.60
2021,09,29,13,56,29.00
2021,09,29,13,57,32.20
2021,09,29,13,58,29.00
2021,09,29,13,59,24.20
2021,09,29,14,00,24.20
2021,09,29,14,01,30.60
2021,09,29,14,02,29.00
2021,09,29,14,03,27.40
2021,09,29,14,04,40.20
2021,09,29,14,05,35.40
2021,09,29,14,06,29.00
2021,09,29,14,07,29.00
2021,09,29,14,08,27.40
2021,09,29,14,09,29.00
2021,09,29,14,10,29.00
2021,09,29,14,11,29.00
2021,09,29,14,12,29.00
2021,09,29,14,13,27.40
2021,09,29,14,14,32.20
2021,09,29,14,15,29.00
2021,09,29,14,16,24.20
2021,09,29,14,17,24.20
2021,09,29,14,18,27.40
2021,09,29,14,19,20.90
2021,09,29,14,20,27.40
2021,09,29,14,21,25.70
2021,09,29,14,22,32.20
2021,09,29,14,23,30.60
2021,09,29,14,24,32.20
2021,09,29,14,25,35.40
2021,09,29,14,26,33.80
2021,09,29,14,27,29.00
2021,09,29,14,28,30.60
2021,09,29,14,29,35.40
2021,09,29,14,30,33.80
2021,09,29,14,31,38.60
2021,09,29,14,32,37.00
2021,09,29,14,33,27.40
2021,09,29,14,34,35.40
2021,09,29,14,35,32.20
2021,09,29,14,36,30.60
2021,09,29,14,37,32.20
2021,09,29,14,38,27.40
2021,09,29,14,39,29.00
2021,09,29,14,40,29.00
2021,09,29,14,41,30.60
2021,09,29,14,42,27.40
2021,09,29,14,43,29.00
2021,09,29,14,44,30.60
2021,09,29,14,45,35.40
2021,09,29,14,46,29.00
2021,09,29,14,47,35.40
2021,09,29,14,48,35.40
2021,09,29,14,49,35.40
2021,09,29,14,50,33.80
2021,09,29,14,51,32.20
2021,09,29,14,52,35.40
2021,09,29,14,53,37.00
2021,09,29,14,54,37.00
2021,09,29,14,55,29.00
2021,09,29,14,56,32.20
2021,09,29,14,57,33.80
2021,09,29,14,58,27.40
2021,09,29,14,59,29.00
2021,09,29,15,00,25.70
2021,09,29,15,01,33.80
2021,09,29,15,02,30.60
2021,09,29,15,03,32.20
2021,09,29,15,04,29.00
2021,09,29,15,05,33.80
2021,09,29,15,06,38.60
2021,09,29,15,07,30.60
2021,09,29,15,08,30.60
2021,09,29,15,09,38.60
2021,09,29,15,10,33.80
2021,09,29,15,11,29.00
2021,09,29,15,12,30.60
2021,09,29,15,13,29.00
2021,09,29,15,14,29.00
2021,09,29,15,15,32.20
2021,09,29,15,16,22.50
2021,09,29,15,17,25.70
2021,09,29,15,18,30.60
2021,09,29,15,19,19.30
2021,09,29,15,20,25.70
2021,09,29,15,21,27.40
2021,09,29,15,22,20.90
2021,09,29,15,23,22.50
2021,09,29,15,24,19.30
2021,09,29,15,25,14.50
2021,09,29,15,26,14.50
2021,09,29,15,27,8.10
2021,09,29,15,28,8.10
2021,09,29,15,29,8.10
2021,09,29,15,30,9.60
2021,09,29,15,31,8.10
2021,09,29,15,32,8.10
2021,09,29,15,33,4.80
2021,09,29,15,34,3.20
2021,09,29,15,35,6.40
2021,09,29,15,36,6.40
2021,09,29,15,37,6.40
2021,09,29,15,38,4.80
2021,09,29,15,39,4.80
2021,09,29,15,40,3.20
2021,09,29,15,41,6.40
2021,09,29,15,42,6.40
2021,09,29,15,43,12.90
2021,09,29,15,44,16.10
2021,09,29,15,45,20.90
2021,09,29,15,46,19.30
2021,09,29,15,47,19.30
2021,09,29,15,48,17.70
2021,09,29,15,49,14.50
2021,09,29,15,50,17.70
2021,09,29,15,51,17.70
2021,09,29,15,52,12.90
2021,09,29,15,53,14.50
2021,09,29,15,54,16.10
2021,09,29,15,55,19.30
2021,09,29,15,56,19.30
2021,09,29,15,57,22.50
2021,09,29,15,58,20.90
2021,09,29,15,59,19.30
2021,09,29,16,00,29.00
2021,09,29,16,01,25.70
2021,09,29,16,02,22.50
2021,09,29,16,03,19.30
2021,09,29,16,04,22.50
2021,09,29,16,05,17.70
2021,09,29,16,06,17.70
2021,09,29,16,07,24.20
2021,09,29,16,08,20.90
2021,09,29,16,09,19.30
2021,09,29,16,10,20.90
2021,09,29,16,11,20.90
2021,09,29,16,12,24.20
2021,09,29,16,13,20.90
2021,09,29,16,14,22.50
2021,09,29,16,15,14.50
2021,09,29,16,16,20.90
2021,09,29,16,17,20.90
2021,09,29,16,18,12.90
2021,09,29,16,19,24.20
2021,09,29,16,20,24.20
2021,09,29,16,21,24.20
2021,09,29,16,22,17.70
2021,09,29,16,23,20.90
2021,09,29,16,24,14.50
2021,09,29,16,25,14.50
2021,09,29,16,26,14.50
2021,09,29,16,27,14.50
2021,09,29,16,28,11.30
2021,09,29,16,29,20.90
2021,09,29,16,30,17.70
2021,09,29,16,31,24.20
2021,09,29,16,32,17.70
2021,09,29,16,33,20.90
2021,09,29,16,34,25.70
2021,09,29,16,35,20.90
2021,09,29,16,36,22.50
2021,09,29,16,37,20.90
2021,09,29,16,38,16.10
2021,09,29,16,39,17.70
2021,09,29,16,40,22.50
2021,09,29,16,41,20.90
2021,09,29,16,42,14.50
2021,09,29,16,43,14.50
2021,09,29,16,44,20.90
2021,09,29,16,45,17.70
2021,09,29,16,46,19.30
2021,09,29,16,47,20.90
2021,09,29,16,48,19.30
2021,09,29,16,49,20.90
2021,09,29,16,50,20.90
2021,09,29,16,51,20.90
2021,09,29,16,52,14.50
2021,09,29,16,53,17.70
2021,09,29,16,54,16.10
2021,09,29,16,55,12.90
2021,09,29,16,56,16.10
2021,09,29,16,57,16.10
2021,09,29,16,58,17.70
2021,09,29,16,59,20.90
2021,09,29,17,00,19.30
2021,09,29,17,01,19.30
2021,09,29,17,02,20.90
2021,09,29,17,03,17.70
2021,09,29,17,04,27.40
2021,09,29,17,05,22.50
2021,09,29,17,06,22.50
2021,09,29,17,07,22.50
2021,09,29,17,08,16.10
2021,09,29,17,09,17.70
2021,09,29,17,10,25.70
2021,09,29,17,11,24.20
2021,09,29,17,12,24.20
2021,09,29,17,13,22.50
2021,09,29,17,14,20.90
2021,09,29,17,15,27.40
2021,09,29,17,16,24.20
2021,09,29,17,17,22.50
2021,09,29,17,18,19.30
2021,09,29,17,19,25.70
2021,09,29,17,20,27.40
2021,09,29,17,21,24.20
2021,09,29,17,22,27.40
2021,09,29,17,23,25.70
2021,09,29,17,24,24.20
2021,09,29,17,25,22.50
2021,09,29,17,26,29.00
2021,09,29,17,27,27.40
2021,09,29,17,28,27.40
2021,09,29,17,29,27.40
2021,09,29,17,30,29.00
2021,09,29,17,31,29.00
2021,09,29,17,32,30.60
2021,09,29,17,33,29.00
2021,09,29,17,34,29.00
2021,09,29,17,35,29.00
2021,09,29,17,36,29.00
2021,09,29,17,37,29.00
2021,09,29,17,38,33.80
2021,09,29,17,39,25.70
2021,09,29,17,40,27.40
2021,09,29,17,41,27.40
2021,09,29,17,42,38.60
2021,09,29,17,43,27.40
2021,09,29,17,44,30.60
2021,09,29,17,45,29.00
2021,09,29,17,46,30.60
2021,09,29,17,47,38.60
2021,09,29,17,48,41.80
2021,09,29,17,49,29.00
2021,09,29,17,50,29.00
2021,09,29,17,51,25.70
2021,09,29,17,52,33.80
2021,09,29,17,53,30.60
2021,09,29,17,54,25.70
2021,09,29,17,55,25.70
2021,09,29,17,56,33.80
2021,09,29,17,57,32.20
2021,09,29,17,58,30.60
2021,09,29,17,59,32.20
2021,09,29,18,00,29.00
2021,09,29,18,01,29.00
2021,09,29,18,02,30.60
2021,09,29,18,03,32.20
2021,09,29,18,04,35.40
2021,09,29,18,05,40.20
2021,09,29,18,06,37.00
2021,09,29,18,07,33.80
2021,09,29,18,08,25.70
2021,09,29,18,09,33.80
2021,09,29,18,10,30.60
2021,09,29,18,11,27.40
2021,09,29,18,12,30.60
2021,09,29,18,13,33.80
2021,09,29,18,14,32.20
2021,09,29,18,15,37.00
2021,09,29,18,16,38.60
2021,09,29,18,17,29.00
2021,09,29,18,18,30.60
2021,09,29,18,19,30.60
2021,09,29,18,20,33.80
2021,09,29,18,21,29.00
2021,09,29,18,22,33.80
2021,09,29,18,23,35.40
2021,09,29,18,24,32.20
2021,09,29,18,25,40.20
2021,09,29,18,26,37.00
2021,09,29,18,27,35.40
2021,09,29,18,28,30.60
2021,09,29,18,29,30.60
2021,09,29,18,30,35.40
2021,09,29,18,31,33.80
2021,09,29,18,32,38.60
2021,09,29,18,33,32.20
2021,09,29,18,34,35.40
2021,09,29,18,35,41.80
2021,09,29,18,36,38.60
2021,09,29,18,37,33.80
2021,09,29,18,38,37.00
2021,09,29,18,39,30.60
2021,09,29,18,40,32.20
2021,09,29,18,41,33.80
2021,09,29,18,42,33.80
2021,09,29,18,43,37.00
2021,09,29,18,44,35.40
2021,09,29,18,45,30.60
2021,09,29,18,46,29.00
2021,09,29,18,47,35.40
2021,09,29,18,48,32.20
2021,09,29,18,49,32.20
2021,09,29,18,50,38.60
2021,09,29,18,51,35.40
2021,09,29,18,52,27.40
2021,09,29,18,53,33.80
2021,09,29,18,54,30.60
2021,09,29,18,55,30.60
2021,09,29,18,56,27.40
2021,09,29,18,57,48.30
2021,09,29,18,58,30.60
2021,09,29,18,59,29.00
2021,09,29,19,00,32.20
2021,09,29,19,01,33.80
2021,09,29,19,02,29.00
2021,09,29,19,03,33.80
2021,09,29,19,04,33.80
2021,09,29,19,05,32.20
2021,09,29,19,06,37.00
2021,09,29,19,07,29.00
2021,09,29,19,08,33.80
2021,09,29,19,09,29.00